EW9999 Weather Reports


Display with metric or nautical units.
time (UTC)temp
F
wind
direction
speed
MPH
gust
MPH
rain 1hr
in
rain 24hr
in
rain mn
in
humidity
%
barometer
mb
20260506184717 53 70 5.0 13.0 0.00 0.00 0.00 40 1022.8
20260506183817 53 57 2.0 8.0 0.00 0.00 0.00 40 1022.7
20260506182917 53 58 3.0 13.0 0.00 0.00 0.00 41 1022.6
20260506182018 53 40 3.0 9.0 0.00 0.00 0.00 43 1022.5
20260506180218 53 58 3.0 10.0 0.00 0.00 0.00 45 1022.7
20260506174418 51 59 4.0 11.0 0.00 0.00 0.00 49 1022.5
20260506173518 51 62 3.0 13.0 0.00 0.00 0.00 51 1022.3
20260506172617 50 68 5.0 15.0 0.00 0.00 0.00 53 1022.2
20260506171718 50 58 6.0 16.0 0.00 0.00 0.00 53 1022.1
20260506170817 51 67 5.0 16.0 0.00 0.00 0.00 51 1022.0
20260506164117 52 117 2.0 10.0 0.00 0.00 0.00 51 1022.0
20260506163217 51 77 3.0 13.0 0.00 0.00 0.00 53 1021.9
20260506162318 51 79 3.0 10.0 0.00 0.00 0.00 52 1021.7
20260506161418 52 67 2.0 10.0 0.00 0.00 0.00 51 1021.8
20260506160517 51 84 2.0 10.0 0.00 0.00 0.00 52 1021.9
20260506155617 51 60 1.0 4.0 0.00 0.00 0.00 53 1021.2
20260506154717 50 70 2.0 10.0 0.00 0.00 0.00 53 1021.4
20260506145317 46 141 1.0 3.0 0.00 0.00 0.00 65 1021.0
20260506143517 41 275 1.0 7.0 0.00 0.00 0.00 75 1021.0
20260506140818 35 238 1.0 3.0 0.00 0.00 0.00 84 1020.8
20260506134118 32 216 1.0 6.0 0.00 0.00 0.00 85 1019.6
20260506133217 31 209 1.0 6.0 0.00 0.00 0.00 84 1019.3
20260506131417 31 222 1.0 4.0 0.00 0.00 0.00 83 1019.3
20260506125618 31 231 0.0 2.0 0.00 0.00 0.00 82 1019.0
20260506123817 31 220 1.0 3.0 0.00 0.00 0.00 82 1018.8
20260506122017 31 221 1.0 3.0 0.00 0.00 0.00 81 1018.8
20260506121117 31 220 1.0 3.0 0.00 0.00 0.00 81 1018.7
20260506120217 31 0 0.0 0.0 0.00 0.00 0.00 81 1018.7
20260506115317 31 227 0.0 2.0 0.00 0.00 0.00 80 1018.6
20260506114417 31 224 1.0 2.0 0.00 0.00 0.00 80 1018.7
20260506113517 31 220 1.0 2.0 0.00 0.00 0.00 80 1018.5
20260506111717 32 217 0.0 2.0 0.00 0.00 0.00 79 1018.5
20260506110817 32 232 0.0 2.0 0.00 0.00 0.00 79 1018.4
20260506105917 32 232 0.0 2.0 0.00 0.00 0.00 79 1018.4
20260506105017 32 233 0.0 2.0 0.00 0.00 0.00 78 1018.3
20260506104117 33 234 1.0 2.0 0.00 0.00 0.00 78 1018.3
20260506103217 33 227 1.0 2.0 0.00 0.00 0.00 77 1018.2
20260506102317 33 228 1.0 2.0 0.00 0.00 0.00 77 1017.9
20260506101418 33 228 1.0 2.0 0.00 0.00 0.00 76 1018.0
20260506100517 33 228 1.0 2.0 0.00 0.00 0.00 75 1017.9
20260506095617 34 226 1.0 1.0 0.00 0.00 0.00 75 1017.9
20260506094717 34 225 0.0 1.0 0.00 0.00 0.00 74 1017.8
20260506093817 34 213 0.0 2.0 0.00 0.00 0.00 74 1017.7
20260506092917 35 208 1.0 2.0 0.00 0.00 0.00 72 1017.7
20260506092017 35 206 1.0 2.0 0.00 0.00 0.00 72 1017.7
20260506091118 35 206 0.0 2.0 0.00 0.00 0.00 72 1017.7
20260506090217 36 207 0.0 2.0 0.00 0.00 0.00 72 1017.6
20260506085317 36 213 1.0 2.0 0.00 0.00 0.00 72 1017.8
20260506084417 36 190 1.0 3.0 0.00 0.00 0.00 72 1017.9
20260506083517 36 184 1.0 4.0 0.00 0.00 0.00 73 1017.8
20260506081717 36 218 1.0 4.0 0.00 0.00 0.00 71 1017.8
20260506073217 36 236 1.0 3.0 0.00 0.00 0.00 69 1017.7
20260506072318 36 233 1.0 3.0 0.00 0.00 0.00 69 1017.8
20260506071417 36 219 1.0 3.0 0.00 0.00 0.00 69 1017.8
20260506070517 35 193 1.0 5.0 0.00 0.00 0.00 69 1017.9
20260506062017 33 196 1.0 2.0 0.00 0.00 0.00 72 1017.2
20260506060217 33 211 1.0 3.0 0.00 0.00 0.00 71 1016.9
20260506050817 34 204 1.0 3.0 0.00 0.00 0.00 68 1016.6
20260506045018 35 200 1.0 4.0 0.00 0.00 0.00 67 1016.3
20260506044117 35 195 1.0 4.0 0.00 0.00 0.00 66 1016.1
20260506043217 36 186 1.0 3.0 0.00 0.00 0.00 65 1015.9
20260506042317 36 197 1.0 5.0 0.00 0.00 0.00 65 1015.7
20260506040517 37 204 1.0 3.0 0.00 0.00 0.00 64 1016.0
20260506035618 38 191 1.0 2.0 0.00 0.00 0.00 64 1015.7
20260506033817 39 229 1.0 2.0 0.00 0.00 0.00 63 1015.4
20260506032917 39 255 1.0 2.0 0.00 0.00 0.00 63 1015.2
20260506032018 40 270 1.0 2.0 0.00 0.00 0.00 62 1015.1
20260506031117 40 290 1.0 2.0 0.00 0.00 0.00 60 1014.9
20260506030217 41 0 0.0 0.0 0.00 0.00 0.00 58 1014.7
20260506015917 45 0 0.0 0.0 0.00 0.00 0.00 49 1014.1
20260506015017 45 0 0.0 0.0 0.00 0.00 0.00 46 1014.0
20260506014117 46 349 0.0 4.0 0.00 0.00 0.00 43 1014.0
20260506013218 46 36 1.0 5.0 0.00 0.00 0.00 41 1013.6
20260506012318 46 68 2.0 11.0 0.00 0.00 0.00 39 1013.6
20260506011417 47 292 1.0 3.0 0.00 0.00 0.00 39 1013.7
20260506010517 47 318 1.0 3.0 0.00 0.00 0.00 38 1013.7
20260506005617 47 329 1.0 5.0 0.00 0.00 0.00 37 1013.7
20260506003818 46 317 2.0 10.0 0.00 0.00 0.00 35 1013.4
20260506002917 46 59 2.0 8.0 0.00 0.00 0.00 39 1013.3
20260506002018 46 322 3.0 13.0 0.00 0.00 0.00 38 1013.2
20260506001118 46 46 5.0 14.0 0.00 0.00 0.00 38 1013.2
20260505235318 46 67 2.0 6.0 0.00 0.00 0.00 42 1012.9
20260505234417 46 55 1.0 6.0 0.00 0.00 0.00 43 1013.0
20260505233518 46 29 2.0 9.0 0.00 0.00 0.00 41 1013.0
20260505231718 48 127 1.0 6.0 0.00 0.00 0.00 43 1012.8
20260505230817 47 56 2.0 9.0 0.00 0.00 0.00 43 1013.0
20260505225917 47 22 2.0 9.0 0.00 0.00 0.00 45 1013.1
20260505223217 47 64 2.0 7.0 0.00 0.00 0.00 45 1013.3
20260505222318 46 77 2.0 10.0 0.00 0.00 0.00 46 1013.2
20260505221417 46 356 2.0 8.0 0.00 0.00 0.00 48 1013.1
20260505220518 46 359 1.0 9.0 0.00 0.00 0.00 48 1013.3
20260505215617 46 357 1.0 10.0 0.00 0.00 0.00 47 1013.4
20260505213817 44 58 1.0 3.0 0.00 0.00 0.00 51 1013.0
20260505212917 44 22 2.0 8.0 0.00 0.00 0.00 51 1013.1
20260505212017 44 13 2.0 8.0 0.00 0.00 0.00 52 1013.0
20260505211117 44 22 2.0 11.0 0.00 0.00 0.00 52 1013.1
20260505210218 44 5 1.0 8.0 0.00 0.00 0.00 51 1013.0
20260505205317 44 25 1.0 8.0 0.00 0.00 0.00 52 1013.4
20260505204417 44 57 1.0 7.0 0.00 0.00 0.00 52 1013.3
20260505203517 44 4 2.0 10.0 0.00 0.00 0.00 52 1013.1
20260505202617 44 23 1.0 6.0 0.00 0.00 0.00 52 1013.0
20260505201717 44 20 1.0 6.0 0.00 0.00 0.00 52 1013.0
20260505200817 44 16 1.0 9.0 0.00 0.00 0.00 53 1013.2
20260505195017 44 58 4.0 13.0 0.00 0.00 0.00 56 1013.4
20260505194118 44 63 2.0 13.0 0.00 0.00 0.00 56 1013.5
20260505193217 43 47 1.0 5.0 0.00 0.00 0.00 59 1013.5
20260505192317 42 45 1.0 2.0 0.00 0.00 0.00 60 1013.5
20260505191417 42 66 1.0 3.0 0.00 0.00 0.00 60 1013.3
20260505190517 41 60 1.0 5.0 0.00 0.00 0.00 59 1013.3
20260505185617 42 30 2.0 9.0 0.00 0.00 0.00 59 1013.1